Вернуться в каталог

VRSS-1

АктивенНаукаSSO
NORAD 38782·PAYLOAD·🇻🇪 Venezuela

Запущен Sep 29, 2012 с Jiuquan Satellite Launch Center

Loading…

Ближайшие Пролёты (ближайшие 24 часа)

TLE

СвежийSource: Space-Track

Эпоха: Sep 14, 2026, 14:12 UTC

1 38782U 12052A   26257.59181278  .00000114  00000-0  21547-4 0  9990
2 38782  97.6265 229.4011 0016665 308.8209  51.1515 14.80154150752830

Отслеживайте VRSS-1 в реальном времени с AllMySat

Download on the App Store